Regional Weather Roundup
Issued by NWS Mobile, AL

Home | Current Version | Previous Version | Text Only | Print | Product List | Glossary On
Versions: 1 2 3 4 5 6 7 8 9 10 11 12 13 14 15 16 17 18 19 20 21 22 23 24 25 26 27
000
ASUS44 KMOB 251212
RWRMOB
REGIONAL WEATHER ROUNDUP
NATIONAL WEATHER SERVICE MOBILE AL
700 AM CDT THU AUG 25 2016

NOTE: "FAIR" INDICATES FEW OR NO CLOUDS BELOW 12,000 FEET WITH NO
      SIGNIFICANT WEATHER AND/OR OBSTRUCTIONS TO VISIBILITY.

  * THESE STATIONS ARE PART OF THE UNIVERSITY OF SOUTH ALABAMA
    MESONET AND ARE NOT UNDER NWS OR FAA QUALITY CONTROL.

ALZ061>064-251300-
COASTAL ALABAMA

CITY           SKY/WX    TMP DP  RH WIND       PRES   REMARKS
MOBILE REG APT FOG       76  75  97 NE6       30.14R VSB 1
6HR MIN TEMP:  76; 6HR MAX TEMP:  78;

BROOKLEY FIELD PTCLDY    80  78  94 N6        30.13R
6HR MIN TEMP:  79; 6HR MAX TEMP:  83;

USA CAMPUS*    NOT AVBL
DOG RIVER*     NOT AVBL


CITY           SKY/WX    TMP DP  RH WIND       PRES   REMARKS
MOUNT VERNON*  NOT AVBL
SARALAND*      NOT AVBL
BAY MINETTE*   NOT AVBL
LOXLEY*        NOT AVBL
ROBERTSDALE*   NOT AVBL
FAIRHOPE*      NOT AVBL
ELBERTA*       NOT AVBL
FOLEY*         NOT AVBL
GRAND BAY*     NOT AVBL
DAUPHIN ISLND* NOT AVBL
BON SCOUR NWR* NOT AVBL
GULF SHORES    CLEAR     76  76 100 NE6       30.11R

$$

ALZ051>060-251300-
INTERIOR SOUTHWEST AND SOUTH CENTRAL ALABAMA

CITY           SKY/WX    TMP DP  RH WIND       PRES   REMARKS
GREENVILLE     CLOUDY    76  72  87 E3        30.16R
6HR MIN TEMP:  74; 6HR MAX TEMP:  76;

EVERGREEN      CLOUDY    73  72  96 CALM      30.16R
6HR MIN TEMP:  72; 6HR MAX TEMP:  76;

CASTLEBERRY*   NOT AVBL
ATMORE*        NOT AVBL
DIXIE*         NOT AVBL
ANDALUSIA/OPP  CLOUDY    78  73  84 CALM      30.15R
6HR MIN TEMP:  77; 6HR MAX TEMP:  80;

ANDALUSIA*     NOT AVBL
FLORALA APT    CLOUDY    74  72  93 E5        30.17R
6HR MIN TEMP:  74; 6HR MAX TEMP:  75;

FLORALA*       NOT AVBL

$$

FLZ001>006-251300-
WESTERN FLORIDA PANHANDLE

CITY           SKY/WX    TMP DP  RH WIND       PRES   REMARKS
PENSACOLA      CLEAR     78  74  87 NE5       30.12R
6HR MIN TEMP:  78; 6HR MAX TEMP:  78;

NAS PENSACOLA  PTCLDY    78  75  90 NE6       30.11R
MILTON         PTCLDY    74  73  97 NE5       30.14R
6HR MIN TEMP:  73; 6HR MAX TEMP:  75;

WHTNG S FIELD  PTCLDY    78  75  90 NE8       30.13R
6HR MIN TEMP:  77; 6HR MAX TEMP:  79;



CITY           SKY/WX    TMP DP  RH WIND       PRES   REMARKS
WALNUT HILL*   NOT AVBL
JAY*           NOT AVBL
DUKE FIELD     CLEAR     73  71  94 CALM      30.13R
CRESTVIEW      PTCLDY    73  71  93 CALM      30.16R
6HR MIN TEMP:  73; 6HR MAX TEMP:  76;

VALPARAISO     PTCLDY    76  71  86 NE6       30.12R
6HR MIN TEMP:  75; 6HR MAX TEMP:  78;

DESTIN         CLEAR     80  75  84 E6        30.12R
6HR MIN TEMP:  80; 6HR MAX TEMP:  83;


$$

MSZ076-079-251300-
INTERIOR SOUTHEAST MISSISSIPPI

CITY           SKY/WX    TMP DP  RH WIND       PRES   REMARKS
LEAKESVILLE*   NOT AVBL
AGRICOLA*      NOT AVBL

$$

MARINE OBSERVATIONS

STATION/POSITION TIME  TEMP    WIND        PRES    WAVE
                       AIR SEA DIR/SP/G            HT/PER
                 (UTC) (F)     (DEG/KT/KT) (MB)    (FT/S)
PASCAGOULA       1100   80      20/  5/  6 1018.6R
PETIT BOIS ISLND 1100   84     100/  5/  6 1019.3R
GRAND BAY        1045   82      20/  4     1020.0R
KATRINA CUT      1100   84      90/  7     1019.6R
CEDAR POINT      1100   83      90/  5     1018.6R
E DAUPHIN ISLAND 1100   84      70/  6/  7 1018.5R
MIDDLE BAY LIGHT 1100   80      60/ 12     1019.0R
USCG MOBILE BAY  1100   78 89   30/  4/  6 1019.8R
STATE DOCKS      1100   78 87              1019.3R
MEAHER PARK      1100   77      60/  5     1019.3R
WEEKS BAY        1000   76                   N/A
FORT MORGAN      1100   83      80/  6/  7 1018.3R
12 S ORANGE BCH  1150   84 87   60/ 12/ 14 1019.1R   2/ 5
PENSACOLA BAY    1100   80 87   70/  2/  7 1019.4R
64 S DAUPHIN ISL 1100   86 87   90/ 10/ 12 1018.0R
67 S FORT MORGAN 1130   84      80/ 12     1018.0R

$$

SELECTED LOCATIONS ACROSS THE REGION

CITY           SKY/WX    TMP DP  RH WIND       PRES   REMARKS
NEW ORLEANS    PTCLDY    83  79  88 CALM      30.09R
GULFPORT       CLEAR     77  77 100 N3        30.10R
PASCAGOULA AP  MOCLDY    77  77 100 N3        30.11R FOG
PASCAGOULA*    NOT AVBL
HATTIESBURG    PTCLDY    76  73  91 CALM      30.15R
LAUREL         CLEAR     73  72  94 CALM      30.15R
MERIDIAN       CLOUDY    77  74  90 S3        30.15R
JACKSON        CLEAR     76  74  93 CALM      30.12R
MONTGOMERY     PTCLDY    78  72  81 E3        30.17R
TROY           CLOUDY    74  73  97 CALM      30.18R
KINSTON*       NOT AVBL
GENEVA*        NOT AVBL
ASHFORD*       NOT AVBL
DOTHAN         MOCLDY    75  73  93 CALM      30.19R
PANAMA CITY    PTCLDY    74  71  91 NE5       30.12R

$$





USA.gov is the U.S. government's official web portal to all federal, state and local government web resources and services.